Regional Weather Roundup
Issued by NWS

Home | Current Version | Previous Version | Text Only | Print | Product List | Glossary Off
Versions: 1 2 3 4 5 6 7 8 9 10 11 12 13 14 15 16 17 18 19 20 21 22 23 24 25 26 27 28 29 30 31 32 33 34 35 36 37 38 39 40 41 42 43 44 45 46 47 48 49 50

000
ASUS43 KIND 060109
RWRIN

WEATHER ROUNDUP FOR INDIANA
NATIONAL WEATHER SERVICE INDIANAPOLIS IN
800 PM EST THU MAR 05 2015

NOTE: "FAIR" INDICATES FEW OR NO CLOUDS BELOW 12,000 FEET WITH NO
SIGNIFICANT WEATHER AND/OR OBSTRUCTIONS TO VISIBILITY.

* - STATION DOES NOT REPORT WEATHER SUCH AS PRECIPITATION OR FOG.

+ - STATION NOT QUALITY CONTROLLED BY THE NATIONAL WEATHER SERVICE.
    USE DATA WITH CAUTION...ESPECIALLY DEWPOINT AND RELATIVE
    HUMIDITY OBSERVATIONS.

INZ001>003-010>013-019-020-060200-
NORTHWEST INDIANA

CITY           SKY/WX    TMP DP  RH WIND       PRES   REMARKS
GARY /AIRPORT/ CLEAR     16  -2  45 W14       30.55R WCI   1
KNOX *+          N/A     10  -9  40 W6        30.52R WCI   1
LA PORTE +     CLEAR     12   0  59 CALM      30.52R
MICHIGAN CITY+ CLEAR     12  -2  52 CALM      30.53R
MONTICELLO +   FAIR      10   1  66 W8        30.53R WCI  -2
RENSSELAER +   CLEAR     10   1  67 W6        30.54R WCI   1
VALPARAISO     FAIR      10  -1  61 CALM      30.52R

$$

LMZ046-743>745-060200-
SOUTHERN LAKE MICHIGAN

STATION/POSITION TIME  TEMP WIND        PRES
                       AIR  DIR/SP/G
                 (UTC) (F)  (DEG/KT/KT) (MB)
MICHIGAN CITY    0100   14  320/  1/  2   N/A

$$

INZ004-005-014>016-021>024-060200-
NORTH CENTRAL INDIANA

CITY           SKY/WX    TMP DP  RH WIND       PRES   REMARKS
ELKHART        PTCLDY    14   3  62 CALM      30.51R
GOSHEN         CLEAR      9   1  70 W7        30.50R WCI  -2
LOGANSPORT +   CLEAR      7  -4  61 W6        30.53S WCI  -3
PERU/GRISSOM   CLEAR      9   0  68 W8        30.50R WCI  -4
ROCHESTER +    CLEAR     18   5  57 W5        30.52R WCI  11
SOUTH BEND     CLEAR     12   2  64 NW3       30.51R
WARSAW +       CLEAR     14   3  62 NW3       30.50R

$$

INZ006>009-017-018-025>027-060200-
NORTHEAST INDIANA

CITY           SKY/WX    TMP DP  RH WIND       PRES   REMARKS
ANGOLA *+      MOCLDY    14  10  85 W5        30.46R WCI   6
AUBURN +       CLEAR     14  10  85 CALM      30.49R
FORT WAYNE     PTCLDY    13   5  70 W6        30.51R WCI   4
HUNTINGTON +   FAIR      15   4  62 CALM      30.51R

$$

INZ028-029-035-036-043>045-051>053-060200-
WEST CENTRAL INDIANA

CITY           SKY/WX    TMP DP  RH WIND       PRES   REMARKS
CRAWFORDSVL +  CLEAR      6  -6  56 W6        30.55R WCI  -4
GREENCASTLE +  CLEAR     14   0  52 N5        30.54R WCI   6
LAFAYETTE      CLEAR      9   0  67 W7        30.56R WCI  -2
TERRE HAUTE    PTCLDY    11   0  61 W6        30.59R WCI   1

$$

INZ030>032-037>040-046>048-054>057-064-065-060200-
CENTRAL INDIANA

CITY           SKY/WX    TMP DP  RH WIND       PRES   REMARKS
CP ATTERBURY + CLEAR     18   9  68 NW6       30.53S WCI   9
COLUMBUS       CLEAR     16   5  62 NW7       30.53R WCI   6
FRANKFORT +    FAIR       4  -2  76 W7        30.54R WCI  -8
GREENWOOD *+   CLEAR     16   3  57 NW7       30.52R WCI   6
INDIANAPOLIS   CLEAR     14   4  64 NW9       30.52R WCI   2
-EAGLE CREEK   CLEAR     14   4  64 NW7       30.52R WCI   4
KOKOMO *+      CLEAR     10   1  67 W7        30.52R WCI   0
MARION +       CLEAR      7   4  86 W5        30.51S WCI  -2
MT COMFORT *+  PTCLDY    14   1  57 NW6       30.52R WCI   5
SHELBYVILLE    CLEAR     18   6  59 N5        30.52R WCI  11
ZIONSVILLE +   FAIR      12   3  67 W3        30.52R

$$

INZ033-034-041-042-049-050-058-059-060200-
EAST CENTRAL INDIANA

CITY           SKY/WX    TMP DP  RH WIND       PRES   REMARKS
MUNCIE         CLEAR     14   6  70 NW6       30.50R WCI   5

$$

INZ060-061-067>069-081>083-085>088-060200-
SOUTHWEST INDIANA

CITY           SKY/WX    TMP DP  RH WIND       PRES   REMARKS
EVANSVILLE     CLEAR     17   3  54 NW5       30.60R WCI  10
HUNTINGBURG *+ CLEAR     16   1  53 NW9       30.57R WCI   4
WASHINGTON +   CLEAR     13   0  54 NW7       30.58R WCI   3

$$

INZ062-063-066-070>080-084-089>092-060200-
SOUTH CENTRAL AND SOUTHEAST INDIANA

CITY           SKY/WX    TMP DP  RH WIND       PRES   REMARKS
BLOOMINGTON    PTCLDY    15   6  67 CALM      30.53R
NORTH VERNON + CLEAR     19   7  58 N6        30.52R WCI  11
SEYMOUR +      CLEAR     18   5  57 NE6       30.54R WCI   9

$$




USA.gov is the U.S. government's official web portal to all federal, state and local government web resources and services.